Find Starlink 11362

NORAD ID: 61535 Int'l Des: 2024-184 Owner: SPXS Country: US Constellation: starlink operational
LEOCIRCULAR

Live Position

Loading 3D Globe...

About Starlink 11362

Description loading...

Upcoming Passes

Passes for default location (London). Set your location on the main map for personalized predictions.

Altitude History

Loading altitude history...

Two-Line Element Set

1 61535U 24184D 26126.52954678 -.00000887 00000-0 -24673-5 0 9994
2 61535 53.1594 310.9957 0000871 85.9089 274.2028 15.69684994 89506
Epoch: May 6, 2026 • Age: 5 hours

Current Status

Altitude 360.3 km
Velocity 7.70 km/s
Sub-Earth Point 23.49°N, 22.53°W
Launch Date Oct 15, 2024
Age 1.5 years
Type internet

Technical Details

Classification Payload
Mass 960.00 kg
Dry Mass 910.00 kg
Total Mass 960.00 kg
Length 0.30 m
Diameter 4.10 m
Span 29.00 m
Shape Box + pan
Manufacturer SPXS
Bus Type Starlink V2MD
Phase Status In Orbit
Owner/State SPXS/US

Most Searched